EUTELSAT 113 WEST A

Last updated on Sat Apr 13 2024 01:02:37 GMT+0100 (British Summer Time)

1 29162U 06020A 24103.55448825 -.00000229 00000+0 00000+0 0 9991 2 29162 0.2958 95.4236 0004912 299.0793 175.9077 0.98938728 65494
UTC large
Height (km)
Speed (km/s)
/
Latitude / Longitude
Inclination (degrees)
Orbital Period (minutes)
Azimuth
Elevation
Range (km)
Doppler Factor

Next 0 passes for location: London (51.5072 / 0.1276)

Sorry there are no passes over London.